[[{"header":{"parameterUnit":"m.s-1","parameterCategory":2,"la1":30.2992,"la2":30.254,"lo1":-89.0895,"lo2":-89.0443,"dy":0.0025,"dx":0.0025,"nx":19,"ny":19,"refTime":"2026-04-16T03:00:00:Z","depth":"0","parameterNumber":2,"parameterNumberName":"U-component_of_CURRENTS"},"data":[0,0,0,-0.1233,-0.1234,-0.1312,-0.1313,-0.1556,-0.1558,0,0,0,0,0,0,0,0,0,0,0,-0.121,-0.121,-0.1233,-0.1234,-0.1312,-0.1313,-0.1556,-0.1558,0,0,0,0,0,0,0,0,0,0,0,-0.121,-0.121,-0.121,-0.1234,-0.1312,-0.1313,-0.1555,-0.1467,0,0,0,0,0,0,0,0,0,0,-0.1375,-0.1327,-0.121,-0.121,-0.1235,-0.1312,-0.1313,-0.1461,-0.1472,-0.1554,0,-0.1549,0,-0.1551,-0.1576,-0.1577,0,0,0,-0.1259,-0.1317,-0.1331,-0.121,-0.1235,-0.1312,-0.1284,-0.1466,-0.1479,-0.1569,-0.1552,-0.156,-0.1555,-0.1577,-0.1579,-0.1748,-0.1748,0,0,-0.1255,-0.1242,-0.1321,-0.1338,-0.1238,-0.1281,-0.1286,-0.1473,-0.1487,-0.1553,-0.1565,-0.1559,-0.1579,-0.1581,-0.1748,-0.1748,0,0,0,-0.1225,-0.1239,-0.1246,-0.1329,-0.1327,-0.1283,-0.1289,-0.1479,-0.1478,-0.1568,-0.1562,-0.1581,-0.1584,-0.1748,-0.1748,-0.164,0,0,0,-0.1224,-0.122,-0.1244,-0.124,-0.1322,-0.1385,-0.1291,-0.1465,-0.1485,-0.1561,-0.1581,-0.1586,-0.1748,-0.1748,-0.1643,-0.1611,0,0,0,-0.121,-0.1219,-0.122,-0.1239,-0.1259,-0.1381,-0.1391,-0.1469,-0.1482,-0.1577,-0.1587,-0.1748,-0.1748,-0.1646,-0.1616,-0.1607,0,0,0,-0.1208,-0.1212,-0.122,-0.1228,-0.1258,-0.1292,-0.139,-0.1433,-0.15,-0.1582,-0.1748,-0.1748,-0.1647,-0.1619,-0.161,-0.1575,-0.1561,0,0,-0.1212,-0.1212,-0.1216,-0.1224,-0.124,-0.1284,-0.132,-0.144,-0.1534,-0.1703,-0.1706,-0.1642,-0.1616,-0.1608,-0.1565,-0.155,0,0,0,-0.1217,-0.1219,-0.1226,-0.1236,-0.1259,-0.129,-0.1375,-0.1428,-0.1546,-0.1569,-0.1669,-0.1657,-0.1655,-0.164,-0.1629,-0.1654,-0.1747,-0.1747,-0.1747,-0.1243,-0.1236,-0.124,-0.1239,-0.1256,-0.1299,-0.1336,-0.1433,-0.1515,-0.154,-0.1587,-0.1536,-0.1518,-0.1509,-0.1535,-0.1603,-0.1603,-0.1602,-0.1602,-0.1254,-0.1255,-0.124,-0.1237,-0.125,-0.1276,-0.1348,-0.1381,-0.1463,-0.1526,-0.1529,-0.155,-0.149,-0.1523,-0.1596,-0.1597,-0.1597,-0.1598,-0.1599,-0.1281,-0.1273,-0.1258,-0.1236,-0.1237,-0.1257,-0.1281,-0.1332,-0.1394,-0.1385,-0.1417,-0.1419,-0.1434,-0.1392,-0.1391,-0.1391,-0.1391,-0.1391,-0.1391,-0.1313,-0.1292,-0.1265,-0.1237,-0.1218,-0.1216,-0.125,-0.1275,-0.1296,-0.1319,-0.1319,-0.1421,-0.1473,-0.1466,-0.1388,-0.1388,-0.1389,-0.1389,-0.1389,-0.1341,-0.1316,-0.1274,-0.1245,-0.1191,-0.1155,-0.1201,-0.1202,-0.1227,-0.1218,-0.1285,-0.1299,-0.1343,-0.1353,-0.1346,-0.1241,-0.1241,-0.1241,-0.1241,-0.1355,-0.1342,-0.127,-0.1213,-0.1168,-0.1126,-0.108,-0.1107,-0.1177,-0.1208,-0.1238,-0.1262,-0.1267,-0.131,-0.1321,-0.1315,-0.1205,-0.1205,-0.1205,-0.136,-0.133,-0.1284,-0.1206,-0.1141,-0.1077,-0.0986,-0.1014,-0.1158,-0.1208,-0.1276,-0.1278,-0.1322,-0.1328,-0.1406,-0.1419,-0.1416,0,0]},{"header":{"parameterUnit":"m.s-1","parameterCategory":2,"la1":30.2992,"la2":30.254,"lo1":-89.0895,"lo2":-89.0443,"dy":0.0025,"dx":0.0025,"nx":19,"ny":19,"refTime":"2026-04-16T03:00:00:Z","depth":"0","parameterNumber":3,"parameterNumberName":"V-component_of_CURRENTS"},"data":[0,0,0,-0.1095,-0.1095,-0.1067,-0.1066,-0.0857,-0.0855,0,0,0,0,0,0,0,0,0,0,0,-0.1103,-0.1104,-0.1095,-0.1095,-0.1067,-0.1066,-0.0857,-0.0855,0,0,0,0,0,0,0,0,0,0,0,-0.1103,-0.1104,-0.1104,-0.1095,-0.1067,-0.1066,-0.0858,-0.0917,0,0,0,0,0,0,0,0,0,0,-0.0964,-0.0996,-0.1104,-0.1104,-0.1095,-0.1067,-0.1066,-0.0921,-0.0913,-0.0828,0,-0.0843,0,-0.085,-0.0839,-0.0838,0,0,0,-0.1072,-0.1004,-0.1008,-0.1104,-0.1095,-0.1067,-0.1073,-0.0918,-0.0908,-0.0816,-0.0841,-0.0834,-0.0847,-0.0837,-0.0836,-0.0729,-0.073,0,0,-0.1074,-0.1075,-0.1016,-0.1003,-0.1109,-0.1074,-0.1073,-0.0914,-0.09,-0.084,-0.083,-0.0843,-0.0836,-0.0834,-0.0728,-0.0729,0,0,0,-0.1094,-0.1076,-0.1087,-0.1011,-0.1023,-0.1074,-0.1072,-0.0907,-0.0916,-0.0828,-0.0841,-0.0834,-0.0832,-0.0728,-0.0729,-0.0854,0,0,0,-0.1094,-0.109,-0.1088,-0.1085,-0.1028,-0.0987,-0.1069,-0.0927,-0.091,-0.0842,-0.0834,-0.0829,-0.0727,-0.0728,-0.085,-0.0891,0,0,0,-0.1101,-0.1089,-0.1097,-0.1086,-0.1086,-0.0991,-0.0989,-0.0924,-0.0917,-0.0838,-0.0829,-0.0727,-0.0728,-0.0845,-0.0883,-0.0901,0,0,0,-0.1086,-0.1111,-0.1097,-0.1122,-0.1087,-0.1102,-0.0991,-0.0963,-0.0908,-0.0833,-0.0727,-0.0729,-0.0844,-0.0879,-0.0897,-0.1023,-0.1051,0,0,-0.1113,-0.1114,-0.1131,-0.1119,-0.1162,-0.1103,-0.1117,-0.099,-0.0895,-0.076,-0.0759,-0.0851,-0.0883,-0.09,-0.1105,-0.1131,0,0,0,-0.1136,-0.1153,-0.1162,-0.1182,-0.1183,-0.118,-0.1089,-0.1038,-0.094,-0.0874,-0.0845,-0.086,-0.0867,-0.0935,-0.0956,-0.0706,-0.0735,-0.0735,-0.0735,-0.1152,-0.1174,-0.1215,-0.1242,-0.125,-0.1219,-0.1199,-0.1108,-0.1006,-0.0993,-0.0959,-0.1052,-0.1129,-0.1144,-0.0886,-0.0961,-0.0961,-0.0962,-0.0962,-0.1203,-0.1234,-0.126,-0.131,-0.1319,-0.1321,-0.1266,-0.1214,-0.1146,-0.1066,-0.1067,-0.1061,-0.1175,-0.0891,-0.097,-0.0969,-0.0968,-0.0967,-0.0966,-0.1219,-0.1243,-0.1277,-0.1345,-0.1384,-0.1377,-0.1397,-0.1331,-0.1243,-0.1253,-0.1264,-0.1263,-0.1012,-0.1237,-0.1237,-0.1238,-0.1238,-0.1238,-0.1238,-0.1221,-0.1262,-0.1315,-0.1378,-0.1423,-0.1465,-0.1459,-0.1459,-0.1445,-0.1397,-0.1397,-0.1025,-0.1134,-0.1121,-0.1243,-0.1242,-0.1241,-0.1241,-0.1241,-0.1254,-0.1259,-0.1341,-0.1395,-0.1498,-0.1596,-0.1593,-0.1667,-0.1639,-0.1666,-0.1264,-0.1463,-0.142,-0.1404,-0.1396,-0.1581,-0.1581,-0.1581,-0.1581,-0.1256,-0.1269,-0.1372,-0.146,-0.1563,-0.1654,-0.1827,-0.1907,-0.1665,-0.1483,-0.1258,-0.1202,-0.1199,-0.1135,-0.1125,-0.1106,-0.1213,-0.1212,-0.1211,-0.1273,-0.1306,-0.1379,-0.1467,-0.1598,-0.1743,-0.1954,-0.2119,-0.168,-0.1159,-0.0879,-0.0895,-0.0769,-0.0785,-0.0647,-0.0653,-0.061,0,0]}],[{"header":{"parameterUnit":"m.s-1","parameterCategory":2,"la1":30.2992,"la2":30.254,"lo1":-89.0895,"lo2":-89.0443,"dy":0.0025,"dx":0.0025,"nx":19,"ny":19,"refTime":"2026-04-16T03:00:00:Z","depth":"2","parameterNumber":2,"parameterNumberName":"U-component_of_CURRENTS"},"data":[0,0,0,-0.2453,-0.2456,-0.2602,-0.2602,-0.2642,-0.2643,0,0,0,0,0,0,0,0,0,0,0,-0.2391,-0.2392,-0.2453,-0.2457,-0.2602,-0.2602,-0.2642,-0.2643,0,0,0,0,0,0,0,0,0,0,0,-0.239,-0.2392,-0.2393,-0.2457,-0.2602,-0.2603,-0.2642,-0.2565,0,0,0,0,0,0,0,0,0,0,-0.244,-0.2389,-0.2391,-0.2393,-0.2458,-0.2602,-0.2603,-0.2563,-0.257,-0.254,0,-0.2573,0,-0.2618,-0.2643,-0.2643,0,0,0,-0.2441,-0.2384,-0.2449,-0.2393,-0.246,-0.2602,-0.2532,-0.2568,-0.2576,-0.2548,-0.2574,-0.2577,-0.2619,-0.2643,-0.2643,-0.2698,-0.2699,0,0,-0.2433,-0.2387,-0.2444,-0.2454,-0.2509,-0.2528,-0.2537,-0.2574,-0.2567,-0.2574,-0.2579,-0.2619,-0.2643,-0.2644,-0.2698,-0.2698,0,0,0,-0.2421,-0.2381,-0.2448,-0.2451,-0.2495,-0.2532,-0.2543,-0.2565,-0.2596,-0.258,-0.262,-0.2644,-0.2644,-0.2697,-0.2698,-0.2726,0,0,0,-0.2415,-0.2376,-0.2444,-0.2414,-0.2495,-0.2548,-0.2532,-0.2593,-0.26,-0.262,-0.2644,-0.2644,-0.2697,-0.2698,-0.2724,-0.2719,0,0,0,-0.2382,-0.2372,-0.2399,-0.2412,-0.2487,-0.2549,-0.2581,-0.2596,-0.2623,-0.2643,-0.2644,-0.2696,-0.2697,-0.2723,-0.2717,-0.2656,0,0,0,-0.2316,-0.2355,-0.2397,-0.2459,-0.2486,-0.2603,-0.2581,-0.2641,-0.2662,-0.2644,-0.2697,-0.2698,-0.2722,-0.2716,-0.2656,-0.2509,-0.2498,0,0,-0.2331,-0.2355,-0.2398,-0.2442,-0.2552,-0.2581,-0.2669,-0.2678,-0.2667,-0.2669,-0.2672,-0.2725,-0.2717,-0.2656,-0.258,-0.2566,0,0,0,-0.2383,-0.2404,-0.2449,-0.2523,-0.2619,-0.2679,-0.2717,-0.2718,-0.2728,-0.2691,-0.2742,-0.2736,-0.2696,-0.2609,-0.2599,-0.2704,-0.2704,-0.2703,-0.2703,-0.2296,-0.2389,-0.2454,-0.2568,-0.2642,-0.2742,-0.2774,-0.2778,-0.2774,-0.2778,-0.2773,-0.2764,-0.2676,-0.2666,-0.2797,-0.2797,-0.2798,-0.2798,-0.2798,-0.2293,-0.2315,-0.244,-0.2532,-0.2636,-0.2708,-0.2798,-0.2808,-0.2806,-0.2813,-0.2772,-0.2661,-0.2655,-0.28,-0.28,-0.28,-0.2799,-0.2799,-0.2799,-0.2205,-0.222,-0.2309,-0.2428,-0.2526,-0.2658,-0.2684,-0.2768,-0.2795,-0.2798,-0.264,-0.2637,-0.2732,-0.2756,-0.2756,-0.2756,-0.2756,-0.2755,-0.2755,-0.2041,-0.2135,-0.2167,-0.2303,-0.2366,-0.2451,-0.2599,-0.2607,-0.2618,-0.2641,-0.2639,-0.2749,-0.275,-0.2729,-0.2751,-0.2752,-0.2753,-0.2753,-0.2753,-0.1889,-0.1928,-0.1971,-0.2029,-0.2161,-0.2154,-0.2323,-0.2333,-0.2371,-0.233,-0.253,-0.2536,-0.2492,-0.2499,-0.2472,-0.2426,-0.2426,-0.2426,-0.2426,-0.1737,-0.1774,-0.1786,-0.184,-0.1896,-0.2007,-0.1946,-0.2024,-0.2145,-0.2172,-0.2184,-0.218,-0.2198,-0.2138,-0.2154,-0.2119,-0.1982,-0.1981,-0.198,-0.161,-0.1642,-0.16,-0.1694,-0.1777,-0.18,-0.1744,-0.1678,-0.1676,-0.1965,-0.2135,-0.239,-0.2416,-0.2433,-0.2368,-0.2382,-0.2338,0,0]},{"header":{"parameterUnit":"m.s-1","parameterCategory":2,"la1":30.2992,"la2":30.254,"lo1":-89.0895,"lo2":-89.0443,"dy":0.0025,"dx":0.0025,"nx":19,"ny":19,"refTime":"2026-04-16T03:00:00:Z","depth":"2","parameterNumber":3,"parameterNumberName":"V-component_of_CURRENTS"},"data":[0,0,0,0.0404,0.0403,0.0353,0.0352,0.034,0.0341,0,0,0,0,0,0,0,0,0,0,0,0.0409,0.0408,0.0404,0.0403,0.0353,0.0352,0.034,0.0341,0,0,0,0,0,0,0,0,0,0,0,0.0409,0.0409,0.0408,0.0403,0.0353,0.0352,0.034,0.0363,0,0,0,0,0,0,0,0,0,0,0.0405,0.0395,0.0409,0.0408,0.0403,0.0353,0.0352,0.0364,0.0362,0.0381,0,0.0367,0,0.0365,0.0342,0.0342,0,0,0,0.0394,0.0396,0.0397,0.0408,0.0402,0.0353,0.0373,0.0362,0.036,0.0379,0.0367,0.0366,0.0364,0.0342,0.0342,0.0257,0.0256,0,0,0.0397,0.0389,0.0398,0.0395,0.0382,0.0374,0.0371,0.036,0.0348,0.0367,0.0366,0.0364,0.0342,0.0342,0.0258,0.0256,0,0,0,0.0411,0.039,0.039,0.0396,0.0388,0.0373,0.037,0.0348,0.0352,0.0366,0.0364,0.0342,0.0342,0.0259,0.0257,0.0161,0,0,0,0.0412,0.04,0.0391,0.0384,0.0388,0.0359,0.0358,0.0352,0.0351,0.0364,0.0342,0.0343,0.026,0.0258,0.0166,0.0164,0,0,0,0.0412,0.04,0.0395,0.0384,0.0369,0.0359,0.036,0.0351,0.0351,0.0342,0.0343,0.0261,0.0258,0.017,0.017,0.0127,0,0,0,0.0406,0.0359,0.0394,0.0342,0.037,0.0316,0.036,0.0309,0.029,0.0342,0.026,0.0257,0.0172,0.0174,0.0131,0.0161,0.0145,0,0,0.0341,0.0351,0.0322,0.0352,0.0297,0.0322,0.0247,0.0242,0.0261,0.0269,0.0267,0.0164,0.017,0.0128,0.0013,0.0003,0,0,0,0.0297,0.0266,0.0259,0.0235,0.0231,0.0212,0.0199,0.0185,0.0144,0.0242,0.0139,0.0147,0.0123,0.0148,0.0138,0.0245,0.0246,0.0246,0.0246,0.0181,0.0191,0.0133,0.0135,0.012,0.0113,0.0085,0.0064,0.008,0.0026,0.0047,-0.0074,-0.0052,-0.0058,0.0003,0.0003,0.0002,0.0002,0.0002,0.0056,0.0023,0.0041,-0.0017,0.0009,-0.0042,-0.0038,-0.0047,-0.0097,-0.0069,-0.0089,0.0019,-0.0074,-0.0007,-0.0005,-0.0004,-0.0003,-0.0002,-0.0002,-0.0024,-0.0037,-0.007,-0.0126,-0.0152,-0.0138,-0.0167,-0.016,-0.0172,-0.0196,-0.0163,-0.016,-0.0094,-0.0228,-0.0228,-0.0228,-0.0228,-0.0229,-0.0229,-0.0088,-0.0114,-0.0192,-0.0234,-0.0264,-0.0276,-0.0254,-0.0256,-0.0249,-0.024,-0.024,-0.015,-0.0142,-0.0107,-0.0233,-0.0232,-0.0231,-0.0231,-0.0231,-0.0177,-0.0189,-0.0301,-0.0353,-0.0415,-0.0436,-0.0381,-0.0353,-0.0345,-0.0343,-0.026,-0.0258,-0.021,-0.0201,-0.0167,-0.0301,-0.0301,-0.0301,-0.0301,-0.0227,-0.0244,-0.0396,-0.0481,-0.0537,-0.0512,-0.0508,-0.0278,-0.0164,0.0017,0.0004,0.0072,0.0065,0.0136,0.0137,0.0182,0.0139,0.014,0.0141,-0.0281,-0.032,-0.0433,-0.053,-0.0598,-0.0597,-0.0557,-0.0177,0.0277,0.0172,0.022,-0.0298,-0.0234,-0.023,-0.0146,-0.0135,-0.0073,0,0]}],[{"header":{"parameterUnit":"m.s-1","parameterCategory":2,"la1":30.2992,"la2":30.254,"lo1":-89.0895,"lo2":-89.0443,"dy":0.0025,"dx":0.0025,"nx":19,"ny":19,"refTime":"2026-04-16T03:00:00:Z","depth":"4","parameterNumber":2,"parameterNumberName":"U-component_of_CURRENTS"},"data":[0,0,0,-0.0985,-0.0986,-0.1095,-0.1096,-0.1247,-0.1249,0,0,0,0,0,0,0,0,0,0,0,-0.0961,-0.0961,-0.0984,-0.0986,-0.1095,-0.1096,-0.1247,-0.1249,0,0,0,0,0,0,0,0,0,0,0,-0.096,-0.0961,-0.0962,-0.0986,-0.1095,-0.1096,-0.1247,-0.1168,0,0,0,0,0,0,0,0,0,0,-0.1063,-0.1025,-0.0961,-0.0962,-0.0987,-0.1095,-0.1096,-0.1164,-0.1172,-0.1194,0,-0.1207,0,-0.1215,-0.1257,-0.1257,0,0,0,-0.101,-0.1018,-0.1045,-0.0962,-0.0988,-0.1094,-0.1053,-0.1169,-0.1179,-0.1206,-0.1209,-0.1215,-0.1218,-0.1258,-0.1258,-0.1365,-0.1365,0,0,-0.1004,-0.0985,-0.1039,-0.1051,-0.1011,-0.1049,-0.1056,-0.1175,-0.1184,-0.121,-0.1218,-0.122,-0.1258,-0.1259,-0.1365,-0.1365,0,0,0,-0.0971,-0.0981,-0.1006,-0.1045,-0.1055,-0.1052,-0.1059,-0.1179,-0.1187,-0.122,-0.1222,-0.1259,-0.1261,-0.1364,-0.1365,-0.1367,0,0,0,-0.0968,-0.0959,-0.1003,-0.0994,-0.1053,-0.1114,-0.1061,-0.118,-0.1193,-0.1221,-0.1259,-0.1262,-0.1364,-0.1365,-0.1366,-0.1332,0,0,0,-0.0956,-0.0958,-0.0969,-0.0992,-0.1027,-0.1112,-0.1129,-0.1183,-0.1193,-0.1257,-0.1262,-0.1364,-0.1364,-0.1366,-0.1333,-0.132,0,0,0,-0.0936,-0.0947,-0.0969,-0.0999,-0.1025,-0.11,-0.1128,-0.1206,-0.1265,-0.126,-0.1364,-0.1365,-0.1366,-0.1333,-0.132,-0.1156,0,0,0,-0.0936,-0.0947,-0.0969,-0.099,-0.1026,-0.1087,-0.1148,-0.1239,-0.1277,-0.1329,-0.1332,-0.1367,-0.1333,-0.132,-0.1193,0,0,0,0,-0.0961,-0.096,-0.0984,-0.1012,-0.1076,-0.1117,-0.1211,-0.1246,-0.1324,-0.1307,-0.1378,-0.1356,-0.1348,-0.1255,-0.1368,-0.1367,-0.1367,-0.1367,-0.1367,-0.0906,-0.0946,-0.0968,-0.1018,-0.1073,-0.1154,-0.1207,-0.1268,-0.1332,-0.1365,-0.1368,-0.1369,-0.1273,-0.1398,-0.1398,-0.1398,-0.1398,-0.1398,-0.1398,-0.0865,-0.0875,-0.0935,-0.0971,-0.1035,-0.1104,-0.1205,-0.1257,-0.1332,-0.1369,-0.1363,-0.1276,-0.1399,-0.1399,-0.1399,-0.1399,-0.1399,-0.1399,-0.1398,-0.0804,-0.0814,-0.0852,-0.0893,-0.0957,-0.1063,-0.1125,-0.1225,-0.1305,-0.1325,-0.1235,-0.1356,-0.1343,-0.1343,-0.1343,-0.1343,-0.1342,-0.1342,-0.1342,-0.0726,-0.0761,-0.0752,-0.081,-0.0856,-0.0944,-0.1077,-0.1131,-0.1223,-0.1191,-0.1328,-0.1349,-0.1351,-0.1339,-0.1339,-0.134,-0.134,-0.134,-0.1341,-0.0644,-0.0663,-0.0632,-0.0655,-0.0737,-0.0808,-0.0945,-0.1003,-0.1017,-0.0998,-0.1116,-0.1128,-0.1101,-0.1108,-0.1088,-0.1013,-0.101,-0.1008,0,-0.0579,-0.0588,-0.0547,-0.056,-0.0599,-0.0737,-0.0743,-0.0812,-0.0896,-0.0879,-0.1027,-0.1161,-0.1169,-0.1141,-0.1144,-0.112,0,0,0,-0.0516,-0.0522,-0.0478,-0.0509,-0.0561,-0.0657,-0.0753,-0.0741,-0.0887,-0.0836,-0.0954,-0.0968,-0.1167,-0.1331,-0.1317,-0.1319,-0.1299,0,0]},{"header":{"parameterUnit":"m.s-1","parameterCategory":2,"la1":30.2992,"la2":30.254,"lo1":-89.0895,"lo2":-89.0443,"dy":0.0025,"dx":0.0025,"nx":19,"ny":19,"refTime":"2026-04-16T03:00:00:Z","depth":"4","parameterNumber":3,"parameterNumberName":"V-component_of_CURRENTS"},"data":[0,0,0,-0.0086,-0.0086,-0.0083,-0.0083,-0.0068,-0.0068,0,0,0,0,0,0,0,0,0,0,0,-0.0089,-0.0089,-0.0086,-0.0086,-0.0083,-0.0083,-0.0068,-0.0068,0,0,0,0,0,0,0,0,0,0,0,-0.0089,-0.0089,-0.0089,-0.0086,-0.0083,-0.0083,-0.0068,-0.0072,0,0,0,0,0,0,0,0,0,0,-0.0075,-0.0082,-0.0089,-0.0089,-0.0086,-0.0083,-0.0083,-0.0072,-0.0072,-0.0067,0,-0.0072,0,-0.007,-0.0067,-0.0067,0,0,0,-0.0082,-0.0082,-0.0082,-0.0089,-0.0086,-0.0083,-0.0083,-0.0072,-0.0071,-0.0066,-0.0072,-0.0071,-0.007,-0.0067,-0.0067,-0.0103,-0.0103,0,0,-0.0082,-0.0086,-0.0083,-0.0082,-0.0092,-0.0083,-0.0083,-0.0072,-0.0074,-0.0072,-0.0071,-0.007,-0.0067,-0.0067,-0.0102,-0.0103,0,0,0,-0.0085,-0.0087,-0.0087,-0.0083,-0.0083,-0.0083,-0.0083,-0.0074,-0.0075,-0.0071,-0.0069,-0.0067,-0.0067,-0.0102,-0.0103,-0.0177,0,0,0,-0.0085,-0.0089,-0.0087,-0.0089,-0.0084,-0.008,-0.0086,-0.0075,-0.0074,-0.0069,-0.0067,-0.0066,-0.0101,-0.0102,-0.0174,-0.0203,0,0,0,-0.0088,-0.0089,-0.0091,-0.0089,-0.009,-0.0081,-0.008,-0.0075,-0.0073,-0.0067,-0.0066,-0.0101,-0.0102,-0.0171,-0.0198,-0.0094,0,0,0,-0.0089,-0.0133,-0.0091,-0.0144,-0.009,-0.0143,-0.008,-0.0103,-0.0106,-0.0067,-0.0101,-0.0103,-0.017,-0.0195,-0.0093,-0.0024,0,0,0,-0.0154,-0.014,-0.0176,-0.0139,-0.0214,-0.0143,-0.0209,-0.0172,-0.0119,-0.0102,-0.0103,-0.0175,-0.0198,-0.0094,-0.0095,0,0,0,0,-0.0204,-0.0224,-0.0242,-0.0269,-0.0282,-0.0285,-0.025,-0.0216,-0.0183,-0.0125,-0.0179,-0.019,-0.0121,-0.008,-0.0108,-0.0108,-0.0108,-0.0108,-0.0108,-0.0274,-0.0292,-0.0358,-0.0378,-0.0401,-0.0385,-0.0366,-0.0307,-0.0265,-0.025,-0.0254,-0.0234,-0.0201,-0.0258,-0.0258,-0.0259,-0.0259,-0.0259,-0.0259,-0.0366,-0.0398,-0.0423,-0.0493,-0.0497,-0.053,-0.0467,-0.0416,-0.0329,-0.0323,-0.025,-0.0171,-0.0267,-0.0265,-0.0264,-0.0263,-0.0263,-0.0262,-0.0262,-0.0394,-0.0414,-0.0464,-0.0542,-0.0589,-0.0585,-0.0532,-0.0485,-0.0376,-0.0344,-0.0185,-0.0238,-0.022,-0.0268,-0.0267,-0.0267,-0.0267,-0.0267,-0.0266,-0.039,-0.0444,-0.05,-0.0578,-0.0613,-0.0617,-0.055,-0.0447,-0.0347,-0.0247,-0.0328,-0.0234,-0.0234,-0.0217,-0.0262,-0.0263,-0.0263,-0.0264,-0.0264,-0.0408,-0.0424,-0.0499,-0.0547,-0.0613,-0.0606,-0.0552,-0.0329,-0.019,-0.0061,-0.0145,-0.0152,-0.0086,-0.0088,-0.0063,-0.0064,-0.0063,-0.0063,0,-0.0392,-0.0414,-0.0486,-0.0543,-0.0568,-0.0589,-0.0398,-0.0271,-0.0131,-0.0146,-0.0194,-0.0301,-0.0302,-0.0243,-0.0242,-0.0222,0,0,0,-0.0386,-0.0408,-0.0443,-0.0515,-0.0553,-0.0421,-0.0346,-0.0251,-0.019,0.0,-0.0042,-0.0047,-0.0187,-0.0249,-0.0162,-0.0162,-0.0128,0,0]}]]